Вернуться в каталог

STARLINK-35583

АктивенСвязьVLEO
NORAD 66611·PAYLOAD·🇺🇸 United States

Запущен Nov 22, 2025 с Cape Canaveral Space Force Station

Loading…

Ближайшие Пролёты (ближайшие 24 часа)

TLE

СвежийSource: CelesTrak SupGP

Эпоха: Sep 15, 2026, 03:29 UTC

1 66611C 25270Z   26258.14562500 -.00031944  00000+0 -11571-2 0  2589
2 66611  43.0000  66.1340 0001501 269.9342  22.7203 15.27591548    15

Отслеживайте STARLINK-35583 в реальном времени с AllMySat

Download on the App Store